Wind_Speed
50 55 56 63 47 55 50 57 42 46 68 61 52 53 55 56 54 51 55 65 60 57 54 48 47 48 46 41 38 30 29 31 31 35 34 36 35 36 36 29 20 20 18
54 56 52 64 62 55 67 63 71 60 55 77 62 80 59 55 55 52 54 65 65 62 56 54 52 53 47 46 41 40 35 39 36 37 36 34 35 39 33 33 30 23 24
55 62 64 63 73 66 83 75 70 86 76 79 93 74 71 56 55 52 50 63 69 65 59 57 53 45 48 46 43 43 42 34 39 35 33 35 39 38 33 38 30 28 28
53 57 61 67 73 81 76 80 83 93 89 89 90 71 64 61 56 47 47 58 68 68 65 62 58 44 47 46 46 43 45 35 42 35 36 35 39 41 34 34 35 35 34
50 55 60 65 72 82 79 86 91 97 96 88 78 68 61 58 54 38 49 55 67 71 68 68 58 47 48 49 48 45 44 37 38 41 36 34 38 40 42 41 37 37 37
50 55 59 61 69 70 74 87 93 90 89 82 72 65 58 54 53 67 54 53 65 69 61 63 68 55 50 52 51 51 47 40 41 42 44 38 37 44 46 45 49 53 46
49 50 56 60 66 66 61 82 87 91 82 78 71 62 61 58 58 48 61 58 51 60 62 60 58 55 53 53 54 53 55 55 50 52 52 51 51 52 56 55 56 60 56
48 50 55 61 65 68 64 74 89 94 84 76 66 56 65 64 63 58 54 57 63 59 59 62 56 56 58 52 54 56 56 52 50 46 48 58 53 60 48 68 60 58 58
52 47 54 61 66 70 73 68 91 89 85 78 75 73 68 71 66 59 64 71 65 65 57 64 58 65 63 59 55 63 65 58 55 59 59 60 61 57 68 67 63 63 63
57 57 52 64 68 72 73 70 87 89 87 85 83 79 75 66 62 58 65 72 69 69 69 76 70 73 66 70 71 69 69 69 62 64 66 70 76 71 72 74 75 73 73
66 68 68 65 72 76 78 74 80 97 96 90 87 82 80 78 70 74 75 62 67 76 79 80 82 78 73 71 71 75 71 80 71 68 72 75 81 80 78 77 73 74 70
78 70 70 72 74 79 79 79 79 92 100 100 89 98 94 85 83 75 85 76 86 77 84 78 86 85 85 81 79 75 75 81 83 76 76 78 80 79 77 72 71 71 64
87 83 79 77 82 84 83 85 81 88 101 100 102 94 99 93 87 87 88 88 91 93 89 84 89 92 90 90 92 83 77 78 80 79 80 80 81 79 79 80 81 73 73
84 84 83 83 87 87 85 88 89 90 100 103 103 102 102 104 93 93 95 95 97 97 94 98 94 97 96 93 99 99 85 87 81 76 78 76 83 85 81 81 83 84 83
92 89 87 88 90 94 95 95 98 98 96 104 105 109 109 110 107 102 99 104 105 102 98 105 98 97 102 103 101 106 105 97 93 91 87 87 89 88 87 89 90 88 87
94 95 91 93 94 95 96 99 101 101 101 103 109 112 113 113 111 107 107 109 107 106 103 105 105 103 102 102 105 106 104 106 104 101 100 95 94 95 96 98 98 96 97
97 98 95 95 94 97 99 100 101 100 102 101 108 116 115 115 116 114 112 109 115 110 110 110 109 108 108 106 106 106 106 109 110 109 107 108 103 102 100 101 101 102 105
100 101 100 99 100 96 99 96 99 101 104 107 105 113 121 120 121 121 116 115 113 115 113 114 111 113 111 114 110 109 113 111 111 110 107 108 112 112 111 110 110 110 109
92 97 99 101 100 101 102 102 98 94 102 102 108 112 112 122 125 127 122 122 118 118 116 115 119 119 116 119 120 119 116 117 114 112 113 113 114 114 115 118 117 116 116
68 76 87 91 95 102 100 100 107 104 103 94 101 110 110 115 118 129 133 130 127 124 127 124 122 124 124 121 123 123 125 121 122 122 119 121 120 120 118 120 119 120 118
58 62 67 72 80 88 96 91 98 100 99 99 102 103 104 108 110 121 128 128 125 129 132 132 132 128 129 130 129 128 127 130 129 126 127 125 126 127 125 124 123 124 124
51 54 57 61 65 68 75 82 97 100 99 98 94 99 106 113 110 110 115 106 125 121 125 137 140 139 139 138 136 134 134 133 131 132 133 136 134 134 132 129 126 127 126
46 51 52 54 57 60 63 66 74 81 94 98 95 99 99 108 109 114 112 112 108 110 112 111 116 122 132 135 137 137 138 137 134 136 137 136 140 140 140 141 141 139 143
39 42 47 51 52 53 55 59 62 67 72 85 97 108 115 116 113 115 115 107 108 116 117 118 124 125 124 118 116 115 124 130 131 134 137 137 140 142 144 138 142 136 132
36 38 39 41 46 50 51 51 54 58 61 64 76 83 89 104 127 134 137 131 125 123 126 127 127 123 120 124 126 133 132 130 133 127 124 127 127 128 128 126 130 131 131
33 34 35 37 38 41 43 45 48 49 52 57 61 66 69 73 80 98 115 118 119 121 121 124 129 130 132 134 134 130 132 133 130 131 133 134 133 132 134 135 137 138 137
Wind_Direction
193 190 188 189 190 213 199 178 196 202 226 225 240 256 245 232 233 232 223 212 217 223 231 236 227 225 226 239 236 220 240 253 251 242 247 250 246 244 244 232 236 241 247
190 183 200 195 184 188 196 188 198 203 191 216 230 237 235 235 235 230 229 220 217 223 229 235 236 232 233 240 237 239 250 255 252 246 243 240 245 243 239 229 228 241 255
193 189 192 196 193 194 198 201 199 193 201 205 214 220 229 231 232 229 230 223 222 225 234 240 241 238 238 240 243 237 244 240 232 239 241 236 245 237 228 235 231 240 252
190 195 193 196 198 195 199 203 199 196 203 209 212 215 217 224 231 231 232 226 223 225 233 237 243 243 242 241 242 244 244 235 229 245 235 239 233 239 229 238 245 252 252
190 194 199 200 201 200 199 201 200 199 202 208 210 210 213 216 217 239 234 231 226 227 232 237 243 242 244 243 243 243 248 250 239 239 230 226 225 230 233 242 250 256 261
191 192 196 200 202 202 207 201 202 206 208 206 206 204 205 202 195 224 236 232 229 231 235 236 240 244 242 244 243 247 255 244 242 243 233 231 238 243 240 244 250 265 263
194 194 198 200 203 201 205 203 201 204 206 205 202 202 203 210 217 220 235 243 231 229 237 232 238 245 246 244 247 245 245 246 247 248 248 248 251 253 253 258 259 257 259
199 202 201 200 204 206 208 204 204 206 204 201 196 214 210 206 215 223 238 222 227 231 235 233 233 234 239 239 237 247 245 248 252 257 249 256 252 263 256 260 262 260 263
202 199 205 203 205 205 208 208 206 209 206 206 203 205 211 210 217 218 234 232 234 229 233 233 233 231 228 233 229 243 240 243 245 251 259 254 248 243 253 260 265 262 265
202 211 211 206 205 206 209 211 209 206 204 204 205 205 209 214 214 210 212 228 235 226 221 229 225 225 233 233 232 229 241 242 237 242 251 247 252 260 265 264 267 264 265
203 211 214 211 206 209 209 213 209 208 210 206 207 207 210 213 215 216 216 222 227 230 223 226 229 234 230 227 233 238 239 241 245 247 246 250 248 259 262 264 260 264 265
210 215 216 211 213 212 212 212 214 211 212 211 212 210 210 207 209 215 217 221 224 222 222 231 230 228 226 229 232 236 241 246 244 246 247 251 256 258 258 258 259 263 264
213 216 219 216 212 215 214 216 217 212 215 214 216 215 212 213 213 214 219 224 223 226 224 229 230 231 231 234 239 239 246 242 243 245 250 252 250 252 253 258 256 253 259
217 216 218 218 217 213 215 216 217 218 213 215 215 218 218 218 217 216 222 225 222 226 229 231 230 228 233 239 242 238 241 246 246 247 253 252 253 252 250 251 253 255 254
223 221 220 219 219 219 218 219 219 219 217 215 217 219 220 222 219 223 225 227 225 228 231 230 232 236 237 239 239 237 242 243 242 245 250 254 254 253 252 253 255 257 260
232 229 227 223 222 221 221 220 221 220 219 218 220 223 223 223 223 228 227 230 231 230 231 234 235 235 239 241 241 239 242 242 243 245 247 252 255 257 254 255 258 260 262
232 236 235 234 228 228 225 224 223 222 222 222 222 220 224 227 226 226 230 232 234 234 234 236 237 238 239 239 242 243 245 243 244 248 250 250 254 256 258 259 260 262 264
236 234 236 235 234 235 231 229 228 226 225 223 224 223 225 227 227 230 229 231 233 237 237 237 240 243 241 241 242 245 246 245 245 247 250 252 254 256 256 257 258 259 260
242 242 241 240 237 239 242 240 239 233 230 228 226 225 228 229 230 229 229 230 235 238 239 239 241 243 243 241 243 245 247 248 247 249 251 255 256 257 259 259 260 262 263
246 245 244 246 246 243 246 245 244 245 243 242 232 227 228 232 231 232 233 233 236 239 238 240 242 241 243 244 244 247 248 248 250 251 253 255 256 258 261 261 262 265 268
251 251 247 246 246 245 245 247 249 245 248 251 245 240 238 235 238 235 237 240 241 241 241 240 242 242 243 245 248 249 249 250 251 253 254 256 258 259 261 262 264 265 267
262 258 253 251 250 247 246 245 246 247 247 248 248 247 244 242 244 243 242 246 244 245 245 242 243 243 244 245 249 251 251 252 253 254 254 256 257 260 261 262 264 266 268
266 265 263 259 255 252 250 249 244 243 246 247 249 249 250 248 249 246 247 246 251 249 248 248 248 250 249 251 250 250 251 252 253 254 255 255 257 259 260 261 263 265 267
270 267 265 263 262 257 253 250 247 245 243 243 247 248 247 248 250 251 251 254 256 255 255 254 252 254 255 257 257 255 255 254 256 256 257 256 257 257 258 260 262 266 270
279 276 269 264 259 258 258 255 252 250 248 246 245 245 243 241 243 246 250 254 256 255 255 257 256 258 257 258 258 259 260 257 256 256 256 256 260 261 259 262 262 266 269
287 282 276 270 264 260 257 255 253 250 248 246 244 245 245 245 244 244 246 250 253 255 255 253 252 253 255 255 254 252 254 254 252 249 254 257 259 259 259 262 263 265 265
Height
10431 10452 10471 10484 10493 10519 10537 10549 10568 10577 10607 10594 10611 10611 10619 10627 10629 10634 10639 10645 10651 10657 10664 10672 10677 10680 10687 10693 10698 10702 10708 10715 10719 10720 10724 10728 10733 10735 10738 10741 10743 10744 10744
10420 10439 10453 10472 10483 10497 10516 10530 10541 10556 10574 10596 10603 10606 10611 10615 10620 10626 10630 10638 10644 10649 10655 10662 10667 10672 10679 10684 10689 10693 10697 10704 10710 10712 10716 10720 10724 10726 10730 10733 10734 10735 10736
10409 10425 10443 10462 10470 10482 10497 10509 10521 10531 10544 10558 10574 10587 10594 10601 10608 10615 10620 10627 10634 10640 10646 10653 10657 10663 10669 10675 10680 10682 10684 10691 10698 10702 10706 10711 10714 10717 10722 10724 10726 10727 10728
10401 10416 10434 10449 10460 10471 10481 10492 10503 10516 10528 10539 10556 10566 10578 10591 10596 10608 10614 10619 10624 10629 10636 10643 10647 10655 10661 10665 10670 10674 10676 10681 10686 10692 10695 10699 10704 10707 10711 10715 10716 10718 10721
10393 10408 10421 10434 10447 10459 10470 10480 10492 10505 10516 10531 10543 10553 10563 10574 10578 10592 10605 10610 10613 10617 10624 10633 10640 10648 10653 10657 10661 10664 10668 10671 10676 10681 10685 10689 10694 10698 10701 10700 10706 10709 10713
10382 10395 10408 10419 10431 10445 10456 10467 10480 10496 10506 10520 10529 10541 10553 10564 10568 10596 10595 10596 10602 10607 10613 10621 10629 10636 10641 10645 10651 10654 10660 10663 10668 10672 10675 10680 10684 10688 10689 10694 10695 10697 10701
10370 10383 10395 10407 10418 10430 10440 10453 10468 10482 10499 10509 10521 10531 10539 10548 10559 10574 10580 10582 10589 10597 10603 10610 10615 10625 10629 10632 10637 10641 10646 10652 10657 10659 10664 10668 10671 10673 10677 10682 10683 10683 10687
10364 10375 10384 10394 10404 10416 10427 10438 10453 10465 10482 10495 10507 10518 10527 10533 10543 10557 10564 10569 10576 10584 10591 10595 10600 10611 10614 10617 10622 10631 10637 10641 10643 10645 10650 10654 10658 10660 10660 10663 10666 10671 10674
10350 10361 10372 10382 10392 10401 10412 10426 10440 10453 10469 10482 10491 10499 10511 10522 10531 10537 10550 10559 10563 10572 10581 10582 10585 10596 10601 10602 10607 10616 10622 10625 10629 10632 10633 10637 10641 10644 10645 10647 10652 10655 10660
10339 10350 10361 10369 10377 10389 10400 10409 10422 10438 10450 10455 10469 10476 10493 10499 10511 10522 10533 10538 10548 10558 10564 10572 10576 10582 10586 10590 10595 10597 10605 10609 10612 10617 10619 10621 10622 10625 10629 10632 10634 10638 10642
10329 10335 10344 10354 10361 10369 10382 10393 10404 10417 10432 10442 10448 10458 10467 10481 10491 10502 10514 10525 10531 10537 10546 10554 10559 10564 10569 10574 10578 10582 10586 10590 10596 10600 10601 10604 10606 10610 10613 10615 10617 10622 10625
10314 10323 10333 10339 10348 10356 10365 10377 10387 10398 10408 10422 10431 10439 10451 10457 10467 10476 10489 10499 10507 10516 10524 10528 10536 10541 10549 10555 10560 10565 10568 10573 10577 10582 10585 10587 10590 10592 10595 10598 10603 10606 10611
10303 10310 10317 10323 10331 10340 10351 10359 10368 10378 10388 10398 10411 10420 10432 10440 10448 10457 10465 10475 10485 10489 10500 10507 10514 10520 10526 10532 10534 10543 10549 10555 10560 10563 10566 10567 10570 10573 10579 10583 10586 10589 10592
10282 10290 10299 10306 10314 10320 10329 10339 10348 10357 10367 10378 10387 10397 10410 10420 10426 10434 10442 10449 10457 10466 10475 10483 10491 10498 10505 10511 10516 10523 10529 10536 10542 10545 10547 10549 10551 10556 10559 10563 10567 10570 10574
10260 10268 10275 10285 10293 10301 10309 10317 10327 10335 10345 10359 10367 10375 10384 10394 10405 10411 10418 10426 10431 10442 10451 10458 10468 10475 10482 10488 10494 10503 10509 10517 10520 10523 10526 10530 10532 10537 10539 10542 10544 10549 10554
10244 10250 10257 10263 10270 10280 10289 10297 10305 10314 10324 10331 10344 10351 10362 10372 10382 10390 10399 10406 10413 10423 10431 10437 10445 10452 10459 10464 10471 10479 10486 10493 10496 10499 10505 10508 10510 10514 10517 10521 10525 10528 10532
10231 10235 10240 10247 10253 10262 10269 10278 10287 10299 10308 10318 10328 10335 10342 10352 10361 10370 10379 10388 10394 10403 10412 10417 10422 10429 10437 10443 10449 10456 10462 10468 10473 10477 10481 10485 10488 10492 10496 10498 10501 10506 10509
10214 10219 10223 10229 10236 10241 10250 10260 10269 10278 10287 10297 10306 10318 10325 10331 10340 10349 10361 10368 10374 10385 10391 10396 10402 10408 10416 10423 10427 10433 10435 10443 10450 10455 10457 10461 10465 10469 10473 10475 10476 10481 10485
10192 10195 10201 10206 10212 10219 10227 10235 10245 10257 10265 10274 10285 10296 10305 10312 10321 10329 10338 10344 10351 10360 10368 10375 10380 10384 10391 10398 10402 10408 10413 10418 10425 10431 10434 10438 10440 10443 10447 10450 10453 10455 10456
10170 10173 10177 10184 10190 10196 10203 10210 10218 10226 10238 10253 10264 10275 10282 10289 10294 10305 10312 10319 10325 10332 10341 10347 10353 10358 10362 10368 10374 10380 10388 10394 10397 10402 10406 10409 10412 10416 10421 10423 10426 10430 10431
10151 10151 10154 10158 10164 10170 10176 10183 10191 10200 10208 10216 10232 10247 10256 10265 10272 10277 10285 10290 10296 10303 10310 10317 10323 10329 10333 10338 10344 10351 10356 10364 10369 10372 10378 10381 10381 10388 10391 10394 10398 10401 10404
10129 10130 10133 10135 10138 10143 10149 10156 10164 10170 10179 10189 10199 10211 10224 10233 10240 10248 10256 10260 10268 10273 10278 10285 10290 10296 10302 10308 10315 10320 10327 10331 10336 10343 10347 10352 10354 10358 10365 10368 10370 10371 10375
10111 10111 10112 10115 10118 10121 10124 10129 10133 10139 10148 10158 10167 10179 10189 10200 10207 10217 10223 10232 10235 10241 10246 10253 10262 10268 10274 10280 10284 10288 10292 10296 10301 10308 10314 10319 10322 10326 10330 10336 10340 10341 10342
10098 10096 10094 10095 10096 10099 10102 10104 10108 10113 10116 10123 10137 10147 10153 10164 10173 10182 10190 10194 10197 10204 10210 10218 10226 10230 10235 10240 10246 10251 10257 10263 10267 10276 10280 10286 10288 10290 10294 10298 10303 10303 10301
10082 10080 10079 10079 10079 10079 10081 10085 10089 10092 10096 10101 10110 10118 10119 10125 10136 10143 10152 10159 10164 10170 10175 10180 10185 10190 10193 10198 10203 10210 10213 10221 10231 10236 10240 10247 10249 10252 10258 10262 10265 10263 10263
10070 10066 10063 10062 10063 10064 10066 10068 10071 10075 10079 10083 10088 10092 10095 10100 10102 10107 10114 10119 10125 10131 10138 10142 10146 10150 10155 10160 10163 10165 10170 10177 10184 10191 10197 10202 10207 10211 10215 10218 10222 10226 10228